Regional Weather Roundup
Issued by NWS Charleston, SC

Current Version | Previous Version | Graphics & Text | Print | Product List | Glossary On
Versions: 1 2 3 4 5 6 7 8 9 10 11 12 13 14 15 16 17 18 19 20 21 22 23 24 25 26 27 28 29 30 31 32 33 34 35 36 37 38 39 40 41 42 43 44 45 46 47 48 49 50
000 ASUS42 KCHS 271012 RWRCHS REGIONAL WEATHER ROUNDUP NATIONAL WEATHER SERVICE CHARLESTON SC 600 AM EDT THU AUG 27 2015 NOTE: "FAIR" INDICATES FEW OR NO CLOUDS BELOW 12,000 FEET WITH NO SIGNIFICANT WEATHER AND/OR OBSTRUCTIONS TO VISIBILITY. NOT ALL STATIONS ARE QUALITY CONTROLLED BY THE NATIONAL WEATHER SERVICE. USE DATA WITH CAUTION...ESPECIALLY DEWPOINT OBSERVATIONS. SCZ027-030-031-034>040-042>050-271100- ...SOUTHEAST SOUTH CAROLINA... CITY SKY/WX TMP DP RH WIND PRES REMARKS N CHARLESTON PTCLDY 72 68 87 E3 29.92S WATERFRONT PRK N/A 74 71 90 NE8 29.91S MOUNT PLEASANT LGT RAIN 72 70 94 CALM 29.93R JOHNS ISLAND FAIR 73 72 94 CALM 29.92F PINOPOLIS N/A 75 72 88 E6 29.86S MONCKS CORNER FAIR 73 70 88 CALM 29.93S SUMMERVILLE FAIR 72 72 100 CALM 29.94S BEAUFORT MCAS PTCLDY 78 75 90 N5 29.92S BEAUFORT ARPT PTSUNNY 77 73 88 CALM 29.91S HILTON HEAD IS NOT AVBL WALTERBORO MOSUNNY 73 72 94 N6 29.93F ALLENDALE FAIR 73 70 88 N5 29.94R ...SOUTHERN MIDLANDS AND PEE DEE... CITY SKY/WX TMP DP RH WIND PRES REMARKS GEORGETOWN NOT AVBL KINGSTREE NOT AVBL ORANGEBURG CLOUDY 73 70 90 NE7 29.96R BARNWELL FAIR 72 72 100 NE7 29.96R AIKEN FAIR 68 64 88 NE8 30.00S MANNING PTSUNNY 70 70 100 N3 29.95F COLUMBIA PTCLDY 74 67 78 NE5 29.97S SUMTER CLOUDY 72 69 90 NE8 29.95S FLORENCE CLOUDY 73 70 90 NE8 29.97S MYRTLE BEACH CLOUDY 73 70 88 N9 29.96S N MYRTLE BEACH CLOUDY 73 71 93 N5 29.95S $$ GAZ063-065-086>088-099>101-113>116-118-119-134>141-150-271100- ...SOUTHEAST GEORGIA... CITY SKY/WX TMP DP RH WIND PRES REMARKS SAVANNAH ARPT CLOUDY 76 71 85 CALM 29.91S HUNTER AAF PTCLDY 73 73 100 N1 29.88S FORT STEWART MOCLDY 72 67 84 CALM 29.89R STATESBORO MOCLDY 69 69 100 NE3 29.93R SYLVANIA PTSUNNY 72 71 98 MISG 29.94R CLAXTON NOT AVBL ...CSRA...CENTRAL AND FAR SOUTHEAST GEORGIA... CITY SKY/WX TMP DP RH WIND PRES REMARKS THOMSON CLEAR 67 67 100 NE3 30.01S AUGUSTA-BUSH CLEAR 71 68 90 N8 29.95R AUGUSTA-DANIEL CLEAR 73 67 81 NE8 29.97R SWAINSBORO FAIR 72 72 100 NE7 29.95R VIDALIA PTCLDY 68 63 83 CALM 29.93R EASTMAN FAIR 63 63 100 CALM 29.96R HAZLEHURST FAIR 68 65 92 CALM 29.92R ALMA MOCLDY 68 64 87 NW3 29.92R WAYCROSS MOCLDY 73 73 98 CALM 29.92R JESUP FAIR 72 68 88 CALM 29.91R BAXLEY FAIR 70 63 78 CALM 29.92R BRUNSWICK PTCLDY 72 72 100 CALM 29.92R SAINT SIMONS PTCLDY 75 71 87 SW8 29.91R $$ SCZ027-028-034-036>038-045-046-048>050-GAZ119-141-271100- ...LAKE AND SUPPLEMENTAL COASTAL OBSERVATIONS... STATION/POSITION TIME TEMP WIND PRES WAVE SWELL AIR SEA DIR/SP/G HT/PER HT/PER/DIR (UTC) (F) (DEG/KT/KT) (MB) (FT/S) (FT/S/D) UPR LAKE MARION NOT AVBL WINYAH BAY 0845 76 140/ 5 1013.0 LAKE MURRAY 0900 72 10/ 2/ 5 1014.9R ACE BASIN NERRS NOT AVBL FORT PULASKI NOT AVBL SAPELO ISLAND 0900 77 260/ 4 1012.0F $$ ANZ835-935-AMZ111-154-330-350-352-354-370-450-454-472-271100- ...C-MAN AND BUOY OBSERVATIONS... STATION/POSITION TIME TEMP WIND PRES WAVE SWELL AIR SEA DIR/SP/G HT/PER HT/PER/DIR (UTC) (F) (DEG/KT/KT) (MB) (FT/S) (FT/S/D) BUOY 41004 0950 79 85 240/ 12/ 17 1013.4R 3/11 2/11 BUOY 41008 0950 81 85 260/ 6/ 8 1012.8R 2/11 2/ 90/11 FOLLY BEACH CMAN 1000 78 80/ 8/ 9 1013.3R CAPERS NEARSHORE 0908 76 60/ 10/ 16 1013.3F FRIPP NEARSHORE 0900 81 360/ 6/ 8 1012.3R STATION/POSITION TIME TEMP WIND PRES WAVE SWELL AIR SEA DIR/SP/G HT/PER HT/PER/DIR (UTC) (F) (DEG/KT/KT) (MB) (FT/S) (FT/S/D) 5E ST. MARYS GA 0921 86 N/A 2/11 2/110/11 FRYING PAN BUOY 0950 81 81 270/ 6/ 8 1014.2R BUOY 41025 0950 79 83 30/ 12/ 14 1014.4R 4/10 3/110/10 CAPE LOOKOUT NC 0900 78 130/ 2/ 3 1014.0R BUOY 41002 0950 82 84 200/ 14/ 16 1013.9S 4/10 3/130/10 BUOY 41010 0920 79 85 250/ 8/ 10 1013.7F ST AUGUSTINE FL 1000 76 85 250/ 4/ 5 1013.7R $$

USA.gov is the U.S. government's official web portal to all federal, state and local government web resources and services.